Location: Unspecified
(40.4173°N, 0.0000°E)
Time: 15:58:51
(UTC+00:00)

Transit 2A Rocket - Visible Passes

Search period start: 04 April 2026 00:00
Search period end: 14 April 2026 00:00
Orbit: 584 x 899 km, 66.7° (Epoch: 28 March)

Date Brightness Start Highest point End Pass type
(mag) Time Alt. Az. Time Alt. Az. Time Alt. Az.
4 Apr 7.8 03:19:29 10° SE 03:22:54 16° ESE 03:26:16 10° ENE visible
4 Apr 5.3 04:58:40 10° SSW 05:04:41 80° WNW 05:10:27 10° NNE visible
5 Apr 5.8 04:13:09 10° SSW 04:19:01 60° ESE 04:24:42 10° NE visible
6 Apr 6.7 03:28:55 13° S 03:33:29 34° ESE 03:38:38 10° NE visible
7 Apr 7.4 02:45:08 13° SE 02:48:05 19° ESE 02:52:01 10° ENE visible
7 Apr 5.3 04:24:51 14° SW 04:30:00 69° WNW 04:35:41 10° NNE visible
8 Apr 5.4 03:40:57 27° SSW 03:44:18 70° ESE 03:50:00 10° NE visible
9 Apr 6.3 02:56:56 32° SSE 02:58:44 39° ESE 03:04:02 10° NE visible
9 Apr 6.0 04:36:38 14° WSW 04:41:09 35° NW 04:46:19 10° NNE visible
10 Apr 7.0 02:12:49 22° ESE 02:13:16 22° ESE 02:17:37 10° ENE visible
10 Apr 5.4 03:52:31 31° SW 03:55:18 59° WNW 04:00:54 10° NNE visible
11 Apr 7.8 01:28:38 11° E 01:28:38 11° E 01:29:52 10° E visible
11 Apr 5.2 03:08:20 58° SSW 03:09:33 82° ESE 03:15:16 10° NNE visible
11 Apr 6.8 04:48:27 10° W 04:52:33 19° NW 04:56:31 10° N visible
12 Apr 5.9 02:24:04 46° ESE 02:24:04 46° ESE 02:29:23 10° NE visible
12 Apr 6.2 04:03:47 21° W 04:06:30 30° NW 04:11:26 10° N visible
13 Apr 7.0 01:39:45 24° E 01:39:45 24° E 01:43:08 10° NE visible
13 Apr 5.5 03:19:26 44° W 03:20:35 50° WNW 03:26:04 10° NNE visible
